KINEIS-4C

导读

KINEIS-4E是法国Kineis公司开发的低轨物联网卫星,于2025年3月18日发射升空,目前运行状态为在轨。作为Kineis全球物联网卫星星座计划的组成部分,它采用轻量化设计,运行在近地轨道,可为偏远地区低功耗设备提供双向通信服务,支持农业、物流、环境监测等多领域广域数据传输,助力构建覆盖全球的高效可靠物联网通信网络。

基本信息
目录编号:
63300
目录名称:
KINEIS-4E
国际标识:
2025-056A
轨道中心:
EARTH
卫星名称:
KINEIS-4E
卫星全名:
KINEIS-4C
卫星状态:
在轨 (已飞行454 天)
发射日期:
2025-03-18 UTC
国别 :
法国 (FR)
星等 :
--
轨道信息
数据来源 国际轨道数据 AOE轨道数据
星历时间 2026-06-15T06:31:07+0800
8小时前
查看轨道信息
2026-06-15T05:00:00+0800
10小时前
查看轨道信息
半长轴 7031.939km 7031.938km
偏心率 0.0002497 0.000196
轨道倾角 97.904° 97.905°
近地点辐角 136.019° 134.488°
升交点赤经 289.895° 289.835°
平近点角 224.122° 250.508°
近地点 652.046km 652.422km
远地点 655.558km 655.18km
周期 97.808分钟 97.808分钟
每日圈数 14.722792 14.722795
详细信息
使用方式:
暂无
2D轨道图
3D轨道图
轨道高度分析图
轨道倾角分析图
轨道综合分析图
查看轨道综合分析图